Location: Aldenham
(51.6667°N, 0.3500°W)
Time: 17:17:51
(UTC+00:00)

Resurs 1-3 - Pass Details

Date: 18 November 2025
Orbit: 613 x 615 km, 97.7° (Epoch: 10 December)

Event Time Altitude Azimuth Distance (km) Brightness Sun altitude
Rises 18:33:13 0° 171° (S) 2,873 6.9 -22.3°
Reaches altitude 10° 18:35:24 10° 174° (S) 1,973 6.1 -22.6°
Maximum altitude 18:39:40 68° 258° (WSW) 665 3.8 -23.3°
Drops below altitude 10° 18:43:59 10° 342° (NNW) 1,987 6.3 -23.9°
Sets 18:46:11 0° 345° (NNW) 2,897 7.2 -24.3°
